This demonstration page uses our WeatherBlox Daily Observations layout. Learn more.

Left ArrowRight Arrow

Hourly Observations for August 16, 2018

Temp ( °F °C ) Dew Point ( °F °C ) Humidity (%) Winds ( mph kmh ) Pressure ( in mb ) Visibility ( mi km ) Precip ( " mm )
12:52 am 00:52 Cloudy 75 23.9 72 22.2 90 90 S 6 9 29.93 1013 10 16 0.00 0.00
1:52 am 01:52 Mostly Cloudy 74 23.3 72 22.2 94 94 SSE 7 11 29.91 1013 10 16 0.00 0.00
2:52 am 02:52 Partly Cloudy 73 22.8 71 21.7 94 94 S 6 9 29.90 1013 8 13 0.00 0.00
3:52 am 03:52 Clear with Mist and Fog 73 22.8 71 21.7 94 94 SW 8 13 29.90 1013 6 10 0.00 0.00
4:17 am 04:17 Partly Cloudy with Mist and Fog 73 22.8 71 21.7 94 94 SW 8 13 29.88 1012 6 10 0.00 0.00
4:52 am 04:52 Partly Cloudy with Mist and Fog 72 22.2 71 21.7 97 97 SW 7 11 29.91 1013 5 8 0.00 0.00
5:01 am 05:01 Mostly Cloudy with Mist and Fog 73 22.8 71 21.7 94 94 SW 7 11 29.88 1012 5 8 0.00 0.00
5:44 am 05:44 Partly Cloudy with Mist and Fog 72 22.2 70 21.1 94 94 SW 7 11 29.94 1014 6 10 0.00 0.00
5:52 am 05:52 Mostly Clear with Mist and Fog 72 22.2 70 21.1 94 94 SW 7 11 29.93 1014 5 8 0.00 0.00
6:52 am 06:52 Sunny with Mist and Fog 71 21.7 69 20.6 94 94 SSW 5 7 29.95 1014 3 5 0.00 0.00
7:52 am 07:52 Sunny 73 22.8 71 21.7 94 94 SSW 5 7 29.98 1015 7 11 0.00 0.00
8:52 am 08:52 Sunny 77 25 69 20.6 77 77 W 5 7 29.98 1015 10 16 0.00 0.00
9:52 am 09:52 Sunny 79 26.1 68 20 69 69 W 5 7 29.97 1015 10 16 0.00 0.00
10:52 am 10:52 Sunny 82 27.8 68 20 63 63 NNW 9 15 29.99 1016 10 16 0.00 0.00
11:52 am 11:52 Sunny 85 29.4 69 20.6 59 59 W 8 13 29.99 1016 10 16 0.00 0.00
12:52 pm 12:52 Sunny 86 30 69 20.6 57 57 W 7 11 29.97 1015 10 16 0.00 0.00
1:52 pm 13:52 Sunny 89 31.7 69 20.6 52 52 VRB 3 6 29.96 1014 10 16 0.00 0.00
2:52 pm 14:52 Sunny 90 32.2 69 20.6 50 50 Calm 29.94 1014 10 16 0.00 0.00
3:52 pm 15:52 Sunny 92 33.3 69 20.6 47 47 W 7 11 29.93 1014 10 16 0.00 0.00
4:52 pm 16:52 Sunny 92 33.3 67 19.4 44 44 NW 5 7 29.92 1013 10 16 0.00 0.00
5:52 pm 17:52 Sunny 91 32.8 68 20 47 47 SW 3 6 29.91 1013 10 16 0.00 0.00
6:52 pm 18:52 Sunny 87 30.6 70 21.1 57 57 SSW 5 7 29.92 1013 10 16 0.00 0.00
7:52 pm 19:52 Sunny with Nearby Thunderstorms 86 30 72 22.2 63 63 S 6 9 29.94 1014 10 16 0.00 0.00
8:01 pm 20:01 Sunny with Thunderstorms 85 29.4 72 22.2 65 65 S 3 6 29.88 1012 10 16 0.00 0.00
8:52 pm 20:52 Cloudy with Thunderstorms 73 22.8 67 19.4 81 81 WNW 16 26 30.02 1017 8 13 0.16 4.06
9:23 pm 21:23 Partly Cloudy with Nearby Thunderstorms 72 22.2 68 20 87 87 N 18 30 30.03 1017 10 16 0.01 0.25
9:33 pm 21:33 Mostly Clear with Light Rain 72 22.2 68 20 87 87 N 18 30 30.03 1017 10 16 0.01 0.25
9:49 pm 21:49 Clear with Nearby Thunderstorms 73 23 68 20 83 83 N 15 24 30.03 1017 10 16 0.02 0.51
9:52 pm 21:52 Mostly Clear with Nearby Thunderstorms 73 22.8 67 19.4 81 81 N 15 24 30.03 1017 10 16 0.02 0.51
10:08 pm 22:08 Partly Cloudy with Thunderstorms 73 22.8 66 18.9 79 79 NNW 7 11 30.03 1017 10 16 0.00 0.03
10:23 pm 22:23 Mostly Cloudy with Light Rain 72 22.2 67 19.4 84 84 Calm 30.03 1017 10 16 0.00 0.03
10:52 pm 22:52 Mostly Clear 73 22.8 67 19.4 81 81 SSE 5 7 29.99 1016 10 16 0.00 0.03
11:52 pm 23:52 Partly Cloudy 72 22.2 68 20 87 87 S 7 11 29.99 1016 10 16 0.00 0.00

Powered by AerisWeather